Weather History for Dunkirk, NY

Change the Weather History Date:

Sunday, March 31, 2013

  Actual Average Record
Temperature  
Mean Temperature 50 °F -  
Max Temperature 57 °F 51 °F 79 °F (1977)
Min Temperature 42 °F 31 °F 12 °F (1965)
Degree Days  
Heating Degree Days 16    
Moisture  
Dew Point 30 °F    
Average Humidity 55    
Maximum Humidity 93    
Minimum Humidity 33    
Precipitation  
Precipitation 0.01 in - - ()
Sea Level Pressure  
Sea Level Pressure 29.77 in    
Wind  
Wind Speed 12 mph (South)    
Max Wind Speed 18 mph    
Max Gust Speed 28 mph    
Visibility 10 miles    
Events Rain    
Averages and records for this station are not official NWS values.
T = Trace of Precipitation, MM = Missing Value Source: NWS Daily Summary

Daily Weather History Graph

Daily Weather History Graph

Search for Another Location

Airport:

Trip Planner

Search our weather history database for the weather conditions in past years. The results will help you decide how hot, cold, wet, or windy it might be!

Date:

Astronomy

Mar. 31, 2013 Rise Set
Actual Time 7:00 AM EDT 7:42 PM EDT
Civil Twilight 6:32 AM EDT 8:10 PM EDT
Nautical Twilight 5:58 AM EDT 8:44 PM EDT
Astronomical Twilight 5:24 AM EDT 9:19 PM EDT
Moon No Moon Rise 9:41 AM EDT (3/31)
Length of Visible Light 13h 38m
Length of Day
12h 41m
Waning Gibbous, 78% of the Moon is Illuminated
Mar 31
Waning Gibbous
Apr 3
Last Quarter
Apr 10
New
Apr 18
First Quarter
Apr 25
Full

Hourly Weather History & Observations

Time (EDT) Temp. Windchill Dew Point Humidity Pressure Visibility Wind Dir Wind Speed Gust Speed Precip Events Conditions
12:53 AM 45.0 °F 40.6 °F 21.0 °F 39% 30.00 in 10.0 mi South 8.1 mph - N/A   Clear
1:53 AM 46.0 °F 40.2 °F 21.0 °F 37% 29.98 in 10.0 mi South 12.7 mph - N/A   Clear
2:53 AM 46.0 °F 39.9 °F 21.0 °F 37% 29.95 in 10.0 mi South 13.8 mph - N/A   Clear
3:53 AM 46.0 °F 41.0 °F 19.9 °F 35% 29.93 in 10.0 mi South 10.4 mph - N/A   Clear
4:53 AM 46.9 °F - 19.9 °F 34% 29.89 in 10.0 mi SSE 11.5 mph - N/A   Clear
5:53 AM 46.9 °F - 19.0 °F 33% 29.86 in 10.0 mi South 12.7 mph - N/A   Partly Cloudy
6:53 AM 46.9 °F - 19.9 °F 34% 29.85 in 10.0 mi South 10.4 mph - N/A   Clear
7:53 AM 46.9 °F - 21.0 °F 36% 29.83 in 10.0 mi South 13.8 mph 24.2 mph N/A   Clear
8:53 AM 48.9 °F - 23.0 °F 36% 29.81 in 10.0 mi South 15.0 mph - N/A   Clear
9:53 AM 50.0 °F - 24.1 °F 36% 29.78 in 10.0 mi South 16.1 mph - N/A   Mostly Cloudy
10:53 AM 53.1 °F - 26.1 °F 35% 29.75 in 10.0 mi South 15.0 mph 21.9 mph N/A   Partly Cloudy
11:53 AM 54.0 °F - 27.0 °F 35% 29.73 in 10.0 mi South 16.1 mph - N/A   Mostly Cloudy
12:53 PM 57.0 °F - 28.9 °F 34% 29.71 in 10.0 mi South 18.4 mph 27.6 mph N/A   Scattered Clouds
1:53 PM 54.0 °F - 30.9 °F 41% 29.71 in 10.0 mi SSW 17.3 mph 26.5 mph N/A   Mostly Cloudy
2:53 PM 52.0 °F - 34.0 °F 50% 29.70 in 10.0 mi South 15.0 mph - N/A   Overcast
3:53 PM 50.0 °F - 39.9 °F 68% 29.69 in 10.0 mi South 10.4 mph 18.4 mph 0.00 in   Overcast
4:53 PM 48.0 °F - 41.0 °F 77% 29.68 in 10.0 mi South 11.5 mph - 0.00 in Rain Light Rain
5:53 PM 48.0 °F - 41.0 °F 77% 29.66 in 10.0 mi South 11.5 mph 17.3 mph 0.00 in   Overcast
6:53 PM 46.9 °F - 41.0 °F 80% 29.67 in 9.0 mi SSW 9.2 mph - N/A   Overcast
7:53 PM 44.1 °F 39.5 °F 41.0 °F 89% 29.68 in 8.0 mi WSW 8.1 mph - 0.00 in   Overcast
8:53 PM 44.1 °F 40.8 °F 41.0 °F 89% 29.67 in 10.0 mi South 5.8 mph - 0.01 in   Mostly Cloudy
9:03 PM 42.8 °F 40.1 °F 41.0 °F 93% 29.66 in 10.0 mi SSW 4.6 mph - N/A   Scattered Clouds
9:53 PM 42.1 °F 37.7 °F 39.0 °F 89% 29.68 in 10.0 mi South 6.9 mph - N/A   Clear
10:53 PM 44.1 °F 39.0 °F 39.9 °F 85% 29.65 in 10.0 mi South 9.2 mph - N/A   Clear
11:53 PM 45.0 °F 38.9 °F 39.9 °F 82% 29.62 in 10.0 mi South 12.7 mph 20.7 mph N/A   Mostly Cloudy